Theta_e
332 334 322 317 307 307 301 306 313 314 317 328 332 329 324 327 322 314 340 348 350 352 355 359 362 362 360 359 357 357 357 357 358 356 354 352 351 347 346 347 346 344 340 340 339 339 339 339 339
315 325 311 306 300 295 299 310 311 313 326 330 330 329 327 321 334 337 341 350 352 353 352 355 362 361 359 357 357 357 357 357 356 354 351 349 346 346 344 346 344 340 339 339 339 339 339 339 339
325 315 305 299 297 296 300 310 313 317 328 326 322 330 327 323 337 337 349 351 352 351 353 354 359 358 357 357 356 357 358 357 354 351 349 345 344 344 345 344 343 339 338 338 338 338 338 339 337
309 306 303 298 295 300 307 313 315 317 326 327 326 323 327 335 333 344 350 350 350 350 351 356 358 357 358 356 355 358 358 356 352 348 344 343 343 342 344 342 343 340 337 337 337 337 338 338 336
304 300 294 293 294 299 309 315 318 318 321 325 328 323 323 335 344 346 346 349 348 348 350 353 359 359 358 355 356 357 355 354 350 346 343 342 342 342 342 341 341 339 336 335 335 337 338 335 336
299 296 290 288 292 300 309 316 318 319 322 323 326 325 324 339 340 343 347 348 350 349 349 351 355 357 357 358 357 355 354 351 349 347 345 342 342 342 340 341 340 338 335 334 335 336 337 337 337
297 293 289 289 293 297 303 316 316 319 319 319 325 320 324 333 342 345 347 349 350 349 348 349 351 352 357 356 355 353 352 350 348 347 347 345 342 342 341 341 339 335 336 336 337 337 334 336 334
297 294 289 290 292 294 306 316 318 321 319 323 324 320 318 331 342 344 345 345 346 348 349 348 350 351 349 348 353 351 350 347 347 346 345 345 342 340 337 342 340 333 334 336 338 336 333 332 332
298 293 289 292 296 301 307 312 318 323 318 323 323 325 329 337 338 338 338 338 332 333 336 341 341 341 343 343 345 348 346 343 345 344 346 344 333 332 331 331 335 333 335 336 337 333 331 327 326
297 291 294 298 301 301 299 314 318 319 319 323 324 330 333 335 335 332 331 331 328 330 331 337 339 340 339 341 337 336 334 335 335 335 336 332 328 328 332 336 336 335 334 331 332 328 325 320 313
296 295 298 302 306 303 300 304 317 317 314 320 322 326 331 331 331 331 330 331 329 333 334 337 338 341 335 334 332 329 327 329 329 329 329 327 325 323 326 321 320 320 325 318 318 316 314 312 312
294 300 300 302 305 302 302 316 316 318 319 328 329 331 331 328 327 328 329 328 327 327 333 337 335 334 329 323 322 323 324 324 324 324 325 323 321 320 320 319 318 317 316 315 314 313 313 312 312
297 301 303 305 308 317 319 316 316 317 324 327 328 327 326 328 328 327 332 328 322 324 334 333 329 326 323 324 323 323 323 324 322 323 323 321 319 318 322 321 321 319 318 317 315 312 311 310 310
300 300 302 303 319 321 317 317 318 321 324 322 324 323 324 325 324 324 326 326 324 329 330 326 325 325 324 324 323 322 322 321 321 321 322 321 320 320 320 320 319 318 318 316 315 312 310 309 307
301 299 300 304 303 317 320 315 317 323 322 321 321 322 324 325 325 324 324 325 327 327 324 325 326 326 324 323 323 323 323 322 321 322 323 322 320 321 320 318 317 316 316 316 315 313 312 308 307
297 296 292 305 313 319 318 313 321 325 323 319 320 320 323 323 325 325 325 326 324 323 323 326 328 325 324 324 325 324 324 325 325 324 324 324 323 322 319 316 318 316 316 315 313 309 307 306 305
295 292 293 306 318 316 315 313 320 324 320 318 317 318 320 322 323 324 325 323 324 323 321 321 323 323 324 325 325 326 326 326 325 326 324 323 323 324 319 318 316 314 313 311 311 308 306 304 305
292 294 299 305 314 315 312 313 317 319 318 317 317 317 319 319 320 322 324 325 323 323 323 323 323 324 324 324 324 325 324 325 325 325 325 324 323 324 318 316 315 312 311 310 307 306 305 304 304
299 298 304 312 314 312 312 311 312 316 316 316 316 316 316 318 321 323 323 322 322 322 320 318 317 319 323 322 321 321 320 322 322 322 320 324 324 323 319 318 315 314 310 310 310 307 303 303 304
299 296 298 308 311 308 308 309 314 315 314 315 315 316 314 314 316 317 317 316 316 316 315 314 314 313 313 314 316 317 317 321 320 318 319 321 321 322 322 319 318 314 309 308 305 303 303 302 303
296 295 295 300 309 310 307 305 307 311 314 314 314 315 315 314 312 311 311 312 314 314 315 315 316 316 316 317 317 316 315 317 317 315 316 318 318 317 319 319 318 313 310 307 307 305 302 300 302
295 300 300 306 296 295 304 293 305 307 306 308 308 309 310 311 311 311 311 311 313 314 315 316 316 315 316 315 313 309 308 311 313 311 314 313 314 312 314 316 317 313 310 308 307 308 306 302 299
299 302 299 298 292 293 298 295 302 306 303 305 307 308 308 309 306 307 311 312 314 314 313 314 312 309 310 310 307 306 305 306 308 306 304 304 305 308 311 312 311 311 310 308 306 305 305 305 303
304 299 296 293 290 286 294 296 300 304 304 305 306 306 305 303 304 305 308 309 309 310 311 309 308 306 306 305 305 304 304 305 306 303 302 303 304 306 309 312 311 309 309 310 309 306 306 306 304
300 292 286 286 285 284 297 295 302 306 307 307 304 301 303 303 304 304 304 304 305 305 306 306 304 302 303 302 302 302 303 302 304 306 307 306 304 305 305 307 308 308 311 311 308 307 306 305 304
295 292 287 282 283 285 299 294 300 307 308 307 305 302 303 304 303 304 304 303 302 303 303 303 303 305 302 301 301 301 302 302 302 303 303 304 304 308 305 306 308 310 311 311 309 306 306 305 306
296 293 293 289 288 286 294 300 305 306 305 305 303 303 302 301 303 302 303 302 302 300 300 300 302 300 300 300 300 301 301 300 299 301 302 306 308 307 307 307 305 307 311 309 308 305 308 308 308
300 301 292 290 284 282 291 293 295 302 302 303 302 301 301 302 301 303 302 299 300 299 299 300 299 299 299 300 300 302 299 300 300 300 300 302 302 303 304 305 305 306 309 309 309 308 309 309 306
296 295 294 292 289 284 283 288 302 306 304 302 304 301 301 301 304 301 298 298 298 298 298 299 299 299 299 299 299 300 299 300 300 299 300 301 302 303 304 305 305 306 305 306 307 307 307 305 303
300 296 294 288 288 289 288 287 303 301 302 302 303 303 306 303 300 298 298 299 299 298 299 299 300 301 301 298 298 299 300 300 299 300 301 302 300 302 304 307 307 304 302 301 304 303 303 302 302
Wind_Speed
3 3 1 4 4 5 2 6 1 5 2 1 4 4 6 3 1 1 4 8 15 10 6 8 12 15 16 14 14 15 14 14 15 16 17 18 18 19 18 17 16 15 16 16 16 16 16 17 18
4 2 4 2 6 4 7 3 4 5 3 6 6 4 5 4 6 10 4 11 11 10 6 6 14 15 15 14 13 13 13 13 16 16 17 17 17 16 17 15 14 16 16 16 16 16 17 17 18
1 1 4 5 3 3 4 5 6 3 8 4 3 5 5 4 8 6 12 14 12 8 6 10 14 13 15 15 14 13 11 14 14 15 15 16 16 15 14 14 14 15 15 16 16 16 16 16 17
2 5 5 4 5 9 7 5 6 3 4 3 5 7 6 2 4 8 15 14 12 6 5 13 15 16 16 16 16 14 17 15 15 14 14 13 13 12 12 12 12 13 15 15 15 15 15 15 16
4 3 3 1 5 6 6 5 8 5 4 3 2 5 5 4 18 19 16 12 13 8 6 7 12 14 15 17 15 15 16 16 16 15 14 13 11 10 10 9 10 11 13 13 13 13 12 13 14
4 3 4 2 5 5 6 6 7 5 2 3 7 7 4 11 17 14 15 14 12 10 7 6 10 10 12 14 14 14 14 14 13 14 13 13 12 10 9 8 8 9 11 11 11 11 11 11 12
6 4 4 4 5 7 5 7 10 6 4 4 4 5 5 10 13 13 14 14 11 9 8 5 7 8 12 11 14 15 14 12 12 11 10 10 10 8 8 6 6 8 8 9 9 8 10 10 11
6 4 2 4 3 7 4 3 4 10 1 2 2 6 7 14 17 14 14 14 14 9 9 7 6 2 5 7 14 14 14 14 11 10 10 6 6 5 3 2 3 4 7 8 7 8 10 13 14
5 5 3 5 3 6 4 4 5 3 8 5 5 5 16 21 18 15 11 12 10 8 9 10 7 8 3 4 7 10 12 12 11 9 8 5 2 1 0 0 1 4 7 10 9 11 12 11 13
6 4 7 6 3 5 1 8 10 7 8 8 17 18 21 17 15 16 13 11 8 7 8 7 8 10 5 5 4 4 4 2 1 1 1 2 1 3 3 4 3 2 7 10 10 11 9 7 4
4 6 6 9 9 5 1 5 7 10 5 2 20 19 19 18 14 13 8 10 11 5 8 9 14 15 13 5 3 1 2 3 1 1 1 1 2 2 3 3 4 4 8 4 5 4 3 5 4
1 8 5 7 5 4 6 9 14 15 11 18 16 16 17 18 10 8 6 9 10 8 7 4 9 6 4 4 4 4 3 3 2 1 4 4 3 4 4 3 3 4 3 4 3 2 3 5 5
2 5 4 9 15 14 27 25 15 21 18 19 20 21 18 12 11 4 2 5 8 7 8 10 10 6 4 6 4 4 2 3 3 4 4 3 4 3 2 3 3 3 2 2 2 1 2 4 5
5 5 6 7 20 16 27 17 9 13 15 21 20 20 17 15 11 7 8 8 10 9 12 10 12 11 11 9 9 6 5 4 5 5 4 5 3 3 3 3 2 2 1 1 2 3 4 5 4
4 7 8 18 3 7 6 27 17 12 17 19 18 14 13 11 9 10 10 10 9 8 9 11 12 12 12 11 9 7 6 5 4 3 1 3 3 4 4 2 2 2 1 2 3 3 3 4 4
8 8 8 11 9 11 14 10 11 8 15 20 17 13 11 13 11 12 10 9 8 9 11 10 9 9 10 9 7 6 5 5 4 4 4 6 4 2 1 2 2 2 1 2 2 2 2 3 3
8 5 6 9 18 5 11 11 12 12 14 17 15 15 13 13 13 11 11 10 10 9 9 9 8 8 7 6 6 7 7 5 5 5 4 4 5 1 1 4 2 2 1 2 1 1 1 3 4
2 5 7 8 11 25 21 17 14 13 14 12 12 14 15 13 12 11 10 10 10 9 8 7 7 8 6 4 3 3 2 2 3 3 3 5 3 4 4 2 2 2 1 1 2 0 1 2 3
1 5 12 10 11 18 16 17 12 11 11 12 11 9 10 12 10 9 9 8 8 10 11 11 10 9 6 3 2 2 2 2 2 3 3 4 4 3 4 3 4 3 2 2 2 0 1 2 3
7 6 10 11 10 17 15 16 13 10 9 8 8 7 8 9 10 10 10 9 8 7 6 7 8 7 5 2 3 2 3 3 2 2 4 6 6 4 5 5 6 4 3 3 1 0 1 2 3
4 6 2 10 19 17 20 10 9 9 10 9 9 7 8 6 6 6 8 6 5 5 3 6 6 5 5 5 4 4 3 3 2 5 4 4 7 5 5 6 6 3 2 2 3 2 1 1 2
7 3 7 21 6 6 6 6 5 8 6 5 3 4 2 3 3 4 4 3 3 2 2 2 2 4 3 4 3 3 3 4 3 4 3 5 5 7 6 6 4 5 3 3 3 3 3 3 1
3 2 4 4 4 6 3 6 7 11 6 5 2 1 1 1 1 2 2 2 2 3 3 4 6 7 7 7 6 4 5 4 4 3 6 5 6 6 6 7 4 4 2 1 3 3 3 2 3
2 4 7 5 4 5 5 5 3 3 5 4 3 4 2 3 2 2 4 5 5 5 5 5 5 6 6 6 7 6 6 7 5 6 5 4 3 4 5 6 6 4 3 5 5 5 5 4 2
9 8 5 6 6 3 3 7 4 5 5 6 6 6 7 6 5 4 4 4 5 6 5 5 3 5 6 7 6 6 6 6 6 6 4 4 4 3 5 3 4 1 2 4 5 5 5 5 3
3 5 6 4 3 3 5 4 4 5 5 4 4 7 5 5 4 6 6 4 4 5 4 4 5 5 7 7 7 5 4 4 4 5 5 4 4 4 4 4 4 4 4 4 5 3 4 4 4
5 5 2 4 2 5 3 4 3 4 5 6 6 5 5 4 6 7 7 5 5 3 3 5 6 6 6 6 6 5 5 6 6 7 5 4 5 4 6 5 4 2 2 2 2 2 4 2 3
6 3 6 5 3 2 1 2 3 11 8 5 6 6 5 5 5 5 3 3 2 3 4 5 5 5 5 6 5 4 6 6 6 5 6 6 6 5 6 5 5 4 3 3 5 3 4 2 2
7 6 4 5 3 4 3 6 3 2 6 8 6 6 6 4 2 3 1 2 4 5 6 6 6 6 7 6 6 6 6 7 6 5 5 6 5 5 5 5 4 5 5 5 4 6 5 1 1
5 3 3 5 2 2 3 6 5 3 1 4 4 4 1 5 6 2 4 5 5 5 6 6 7 6 6 6 4 5 5 5 6 7 6 6 5 5 6 5 6 6 5 6 5 4 5 5 5
Wind_Direction
132 135 342 48 37 53 276 267 255 304 35 343 114 139 142 47 23 237 58 72 112 106 110 124 118 110 114 111 111 108 106 107 108 105 105 102 100 99 96 93 90 86 82 75 72 66 59 49 44
110 106 41 61 72 18 291 257 226 240 17 108 100 99 65 97 98 110 89 107 102 106 93 95 105 107 105 105 105 103 108 107 104 106 105 103 102 101 99 96 92 88 83 79 73 65 55 45 39
288 125 88 94 117 198 239 238 238 264 177 157 104 85 115 115 107 110 116 113 94 77 95 116 108 111 114 116 112 113 111 106 106 107 107 107 107 105 102 98 93 87 83 82 75 68 60 53 39
156 15 38 97 222 253 219 222 196 196 243 288 114 82 67 103 93 105 108 101 108 93 113 126 129 133 132 135 136 141 126 122 119 115 110 109 106 102 98 99 97 95 92 87 78 68 62 53 42
39 58 54 340 251 264 242 235 154 169 166 175 101 82 69 41 107 113 113 107 122 118 113 119 132 136 139 141 141 130 126 130 131 128 128 125 119 113 112 112 104 95 89 87 81 72 65 53 36
36 89 49 275 263 266 285 192 153 152 165 119 88 90 44 108 107 112 113 119 119 106 93 89 125 131 143 140 136 134 135 135 136 137 142 140 141 139 135 126 114 97 81 70 71 67 65 50 38
121 87 217 237 268 318 261 162 163 138 126 53 80 78 90 101 110 110 113 113 108 98 89 99 128 153 144 137 142 144 141 142 147 152 151 152 153 154 150 144 122 99 82 65 57 61 60 42 41
105 92 302 249 211 267 272 93 84 96 98 295 103 133 150 142 116 116 115 112 105 92 101 58 18 62 142 157 158 154 153 153 158 166 163 161 158 150 141 100 79 70 59 49 54 79 53 35 41
144 51 286 256 277 262 163 101 22 90 87 43 33 71 113 117 117 114 103 87 75 77 108 94 360 309 170 156 168 161 157 167 171 175 173 142 84 356 248 290 121 97 76 64 64 53 47 52 33
108 137 231 216 223 289 342 136 144 124 96 91 89 87 109 110 112 108 112 119 115 137 178 87 71 325 279 181 167 151 166 165 128 144 129 111 132 256 243 346 335 119 116 58 60 68 46 42 28
170 211 180 253 259 218 198 65 30 78 47 308 131 119 109 104 101 120 136 153 172 139 140 168 136 205 230 189 147 146 117 138 151 254 143 168 78 63 73 48 49 56 55 50 62 38 33 25 15
304 257 191 274 242 26 34 58 65 37 48 85 86 91 96 88 84 99 107 159 156 165 138 45 347 10 8 26 57 41 11 3 5 160 165 141 84 54 65 78 71 66 37 58 51 39 15 2 20
211 300 332 321 67 80 79 61 73 53 60 71 75 78 91 101 103 68 176 140 147 114 64 37 21 41 48 49 49 48 41 13 48 44 50 60 79 83 99 68 66 63 88 95 54 31 341 9 6
270 257 265 80 80 59 75 43 72 41 63 63 64 74 77 85 82 73 65 69 30 34 42 34 35 30 55 51 42 40 59 50 49 38 28 48 86 109 99 96 94 99 101 79 44 21 5 342 346
275 322 13 20 9 150 60 41 63 69 77 76 72 66 75 74 75 51 45 42 38 39 41 29 43 43 47 49 45 39 33 40 56 46 49 87 98 124 139 121 117 141 164 47 34 16 351 335 333
22 40 36 5 48 5 78 86 78 72 76 72 68 71 76 98 84 57 49 42 43 51 43 35 41 50 50 50 45 38 18 14 22 21 19 355 337 353 223 143 166 156 6 38 11 355 312 316 319
7 59 28 27 8 108 82 107 71 69 73 76 69 69 68 79 67 60 47 34 33 40 40 32 33 46 47 41 23 25 16 6 349 354 1 309 297 291 178 225 154 152 21 353 216 271 331 328 334
298 66 50 64 39 73 84 90 72 59 66 75 75 70 71 71 73 79 75 58 41 30 24 30 27 20 11 7 13 4 330 345 313 321 295 272 286 262 229 206 210 199 192 32 257 165 308 268 311
183 98 105 115 120 73 89 89 68 65 67 70 73 80 83 88 83 65 80 80 71 32 23 25 31 16 15 6 335 306 298 251 239 277 322 331 7 313 253 279 236 204 126 219 234 342 304 315 319
62 54 88 69 88 96 104 85 71 81 72 75 90 70 74 76 63 58 48 47 49 44 25 25 28 17 31 9 323 311 285 279 269 55 300 352 341 333 296 246 257 211 160 157 153 207 324 320 354
47 81 35 112 88 112 118 89 95 76 80 57 47 50 48 52 64 67 79 61 62 54 51 56 26 29 3 350 332 323 293 286 282 261 2 331 302 313 283 260 237 209 171 163 197 206 189 224 313
49 316 127 148 132 184 206 132 138 125 96 65 39 23 55 106 139 92 93 88 49 46 43 49 307 329 302 300 300 314 294 315 294 330 323 328 323 329 318 316 264 198 174 188 204 188 214 145 196
221 356 61 136 109 99 83 91 155 154 157 162 182 249 331 316 79 133 84 70 14 7 345 311 327 330 326 336 334 329 328 302 302 314 332 332 329 337 348 356 4 323 270 244 216 239 230 213 162
55 40 34 58 81 60 297 128 143 172 153 150 204 217 213 245 245 318 308 319 310 303 306 310 316 315 336 338 345 353 321 314 322 329 336 330 323 333 355 358 5 341 315 295 259 231 211 208 213
51 47 350 357 7 219 260 56 79 115 144 175 198 217 226 242 249 244 267 293 312 317 305 313 347 327 335 340 341 339 335 331 327 315 306 312 306 327 315 325 325 321 270 282 256 260 234 206 175
355 130 156 246 214 227 15 96 126 132 119 123 175 221 226 238 273 298 300 338 355 9 29 354 343 337 334 325 325 334 339 334 313 314 312 306 290 282 308 304 320 347 356 294 317 259 254 225 211
324 22 264 99 25 74 40 90 154 168 209 186 202 216 228 269 279 287 15 26 74 39 355 346 340 326 328 333 335 329 330 339 320 314 304 291 305 308 308 302 301 308 322 123 65 294 280 212 207
76 265 13 10 345 21 101 213 209 206 216 213 229 240 244 253 265 9 43 46 331 325 319 330 340 316 307 333 329 316 321 309 300 316 310 310 310 307 314 313 313 319 305 58 67 34 356 342 248
356 5 34 108 103 157 186 248 195 156 170 200 217 228 218 224 37 97 118 335 358 348 343 325 339 342 340 342 330 318 322 320 325 332 326 327 332 343 350 357 20 49 27 26 48 50 14 359 71
86 10 67 120 260 67 138 280 41 51 110 165 206 209 139 95 100 42 16 6 356 337 326 339 336 332 318 307 314 325 336 343 7 2 340 335 339 344 356 4 52 49 38 26 41 30 2 11 19